Home > Weather > Salisbury > Past weeks

Flag for United Kingdom Past Weather in Salisbury, England, United Kingdom — Yesterday and Last 2 Weeks

Now
54 °F

Partly sunny.


Feels Like: 50 °F
Forecast: 43 / 67 °F
Wind: 12 mph from Northeast

Location: Boscombe Down

Current Time: May 25, 2016 at 2:13:43 PM

Latest Report: May 25, 2016 at 1:50 PM


Visibility: N/A

Pressure: 30.04 "Hg

Humidity: 63%

Dew Point: 41 °F

Location of SalisburyLocation

Past Weather in Salisbury — Graph

°F

Salisbury Temperature Yesterday

Maximum temperature yesterday: 63 °F (at 12:50 PM)
Minimum temperature yesterday: 45 °F (at 4:50 AM)
Average temperature yesterday: 54 °F

High & Low Weather Summary for the Past Weeks

 TemperatureHumidityPressure
High72 °F (May 12, 4:50 PM)100% (May 10, 8:50 PM)30.21 "Hg (May 10, 8:50 PM)
Low39 °F (May 15, 4:50 AM)44% (May 14, 4:50 PM)29.56 "Hg (May 11, 5:50 PM)
Average54 °F80%29.90 "Hg
* Reported May 10 12:50 PM — May 25 12:50 PM, Salisbury, Weather by CustomWeather, © 2016

Note: Actual official high and low records may vary slightly from our data, if they occured in-between our weather recording intervals... More about our weather records

Advertising

Salisbury Weather History for the Previous 24 Hours

Scroll right to see more
 ConditionsComfort  
Time TempWeatherWind HumidityBarometerVisibility
12:50 PM
Wed, May 25
52 °FBroken clouds.9 mph62%30.04 "HgN/A
11:50 AM52 °FMostly cloudy.9 mph62%30.04 "HgN/A
10:50 AM50 °FPartly sunny.9 mph62%30.04 "HgN/A
9:50 AM50 °FPartly sunny.10 mph67%30.07 "HgN/A
8:50 AM48 °FOvercast.9 mph71%30.07 "HgN/A
7:50 AM46 °FPartly sunny.8 mph82%30.07 "HgN/A
6:50 AM45 °FPartly sunny.8 mph87%30.07 "HgN/A
5:50 AM43 °FOvercast.6 mph87%30.07 "HgN/A
4:50 AM41 °FPassing clouds.7 mph93%30.07 "HgN/A
3:50 AM41 °FPassing clouds.10 mph93%30.07 "HgN/A
2:50 AM43 °FQuite cool.7 mph87%30.09 "HgN/A
1:50 AM45 °FQuite cool.7 mph81%30.09 "HgN/A
12:50 AM46 °FCool.10 mph76%30.09 "HgN/A
11:50 PM
Tue, May 24
48 °FPassing clouds.13 mph76%30.09 "HgN/A
9:50 PM52 °FCool.9 mph67%30.09 "HgN/A
8:50 PM54 °FCool.8 mph58%30.07 "HgN/A
7:50 PM57 °FPassing clouds.16 mph48%30.07 "HgN/A
6:50 PM59 °FScattered clouds.17 mph48%30.07 "HgN/A
5:50 PM61 °FScattered clouds.13 mph48%30.09 "HgN/A
4:50 PM61 °FPartly sunny.13 mph48%30.09 "HgN/A
3:50 PM63 °FSunny.13 mph45%30.09 "Hg10 mi
2:50 PM61 °FSunny.15 mph45%30.12 "Hg10 mi
Weather by CustomWeather, © 2016

See weather overviewHow to use our weather pages